TimeCDT,TemperatureF,Dew PointF,Humidity,Sea Level PressureIn,VisibilityMPH,Wind Direction,Wind SpeedMPH,Gust SpeedMPH,PrecipitationIn,Events,Conditions,WindDirDegrees,DateUTC
12:15 AM,60.8,55.4,82,30.11,10.0,SE,5.8,-,N/A,,Scattered Clouds,130,2013-08-05 05:15:00
12:35 AM,60.8,55.4,82,30.11,10.0,ESE,4.6,-,N/A,,Overcast,120,2013-08-05 05:35:00
12:55 AM,60.8,55.4,82,30.11,10.0,SE,5.8,-,N/A,,Overcast,130,2013-08-05 05:55:00
1:15 AM,62.6,55.4,77,30.10,10.0,SE,5.8,-,N/A,,Overcast,130,2013-08-05 06:15:00
1:35 AM,60.8,55.4,82,30.10,10.0,SE,4.6,-,N/A,,Overcast,130,2013-08-05 06:35:00
1:55 AM,60.8,55.4,82,30.09,10.0,SE,4.6,-,N/A,,Overcast,130,2013-08-05 06:55:00
2:15 AM,60.8,55.4,82,30.09,10.0,ESE,4.6,-,N/A,,Overcast,120,2013-08-05 07:15:00
2:55 AM,59.0,53.6,82,30.08,10.0,SSE,3.5,-,N/A,,Clear,150,2013-08-05 07:55:00
3:15 AM,59.0,53.6,82,30.08,10.0,ESE,3.5,-,N/A,,Clear,120,2013-08-05 08:15:00
3:35 AM,57.2,53.6,88,30.07,10.0,SE,4.6,-,N/A,,Clear,130,2013-08-05 08:35:00
3:55 AM,57.2,53.6,88,30.07,10.0,ESE,4.6,-,N/A,,Clear,120,2013-08-05 08:55:00
4:15 AM,55.4,51.8,88,30.07,10.0,ESE,4.6,-,N/A,,Clear,110,2013-08-05 09:15:00
4:35 AM,55.4,53.6,94,30.07,10.0,East,4.6,-,N/A,,Clear,100,2013-08-05 09:35:00
4:55 AM,55.4,51.8,88,30.06,10.0,ESE,4.6,-,N/A,,Clear,120,2013-08-05 09:55:00
5:15 AM,55.4,51.8,88,30.06,10.0,SE,4.6,-,N/A,,Clear,130,2013-08-05 10:15:00
5:35 AM,55.4,51.8,88,30.05,10.0,SE,5.8,-,N/A,,Clear,130,2013-08-05 10:35:00
5:55 AM,57.2,53.6,88,30.05,10.0,SE,5.8,-,N/A,,Partly Cloudy,140,2013-08-05 10:55:00
6:15 AM,57.2,53.6,88,30.05,10.0,ESE,4.6,-,N/A,,Mostly Cloudy,120,2013-08-05 11:15:00
6:35 AM,59.0,55.4,88,30.05,10.0,SSE,4.6,-,N/A,,Partly Cloudy,150,2013-08-05 11:35:00
6:55 AM,59.0,55.4,88,30.05,10.0,ESE,5.8,-,N/A,,Clear,120,2013-08-05 11:55:00
7:15 AM,60.8,55.4,82,30.07,10.0,East,3.5,-,N/A,,Partly Cloudy,90,2013-08-05 12:15:00
7:55 AM,60.8,57.2,88,30.11,10.0,NW,5.8,-,N/A,,Mostly Cloudy,320,2013-08-05 12:55:00
8:15 AM,60.8,57.2,88,30.08,7.0,SE,3.5,-,0.01,,Overcast,130,2013-08-05 13:15:00
8:35 AM,60.8,57.2,88,30.07,5.0,ESE,4.6,-,0.02,,Overcast,110,2013-08-05 13:35:00
8:55 AM,60.8,57.2,88,30.06,6.0,SE,4.6,-,0.03,,Overcast,130,2013-08-05 13:55:00
9:15 AM,60.8,59.0,94,30.04,7.0,ESE,5.8,-,0.02,,Overcast,120,2013-08-05 14:15:00
9:55 AM,60.8,59.0,94,30.05,10.0,ENE,6.9,-,0.02,,Overcast,60,2013-08-05 14:55:00
10:15 AM,62.6,59.0,88,30.06,5.0,NNE,8.1,-,0.02,,Overcast,30,2013-08-05 15:15:00
10:35 AM,62.6,59.0,88,30.06,7.0,NNE,6.9,-,0.10,,Overcast,20,2013-08-05 15:35:00
10:55 AM,62.6,59.0,88,30.05,5.0,ESE,5.8,-,0.18,,Overcast,120,2013-08-05 15:55:00
11:15 AM,62.6,60.8,94,30.00,5.0,SSE,10.4,-,0.04,,Overcast,160,2013-08-05 16:15:00
11:35 AM,62.6,60.8,94,30.00,6.0,South,6.9,-,0.06,,Overcast,190,2013-08-05 16:35:00
11:55 AM,62.6,60.8,94,29.98,10.0,South,5.8,16.1,0.07,,Mostly Cloudy,180,2013-08-05 16:55:00
12:15 PM,64.4,60.8,88,29.96,10.0,South,6.9,-,N/A,,Scattered Clouds,180,2013-08-05 17:15:00
12:35 PM,66.2,60.8,83,29.98,10.0,South,10.4,16.1,N/A,,Scattered Clouds,190,2013-08-05 17:35:00
12:55 PM,64.4,60.8,88,29.98,10.0,South,8.1,16.1,N/A,,Mostly Cloudy,190,2013-08-05 17:55:00
1:15 PM,66.2,59.0,78,29.97,10.0,South,9.2,-,N/A,,Overcast,180,2013-08-05 18:15:00
2:15 PM,73.4,62.6,69,29.95,10.0,South,8.1,17.3,N/A,,Scattered Clouds,180,2013-08-05 19:15:00
2:55 PM,71.6,60.8,69,29.95,10.0,South,4.6,20.7,N/A,,Overcast,190,2013-08-05 19:55:00
3:15 PM,71.6,60.8,69,29.95,10.0,South,8.1,20.7,N/A,,Overcast,190,2013-08-05 20:15:00
3:35 PM,71.6,60.8,69,29.95,10.0,SSW,5.8,-,N/A,,Overcast,200,2013-08-05 20:35:00
3:55 PM,71.6,62.6,73,29.93,10.0,South,5.8,-,N/A,,Overcast,190,2013-08-05 20:55:00
4:15 PM,73.4,62.6,69,29.92,10.0,South,10.4,-,N/A,,Overcast,180,2013-08-05 21:15:00
4:35 PM,71.6,62.6,73,29.93,10.0,South,6.9,-,N/A,,Overcast,190,2013-08-05 21:35:00
4:55 PM,71.6,62.6,73,29.93,10.0,SSW,3.5,-,N/A,,Overcast,200,2013-08-05 21:55:00
5:15 PM,71.6,62.6,73,29.92,10.0,South,5.8,-,N/A,,Overcast,190,2013-08-05 22:15:00
5:35 PM,71.6,62.6,73,29.90,10.0,South,6.9,-,N/A,,Overcast,180,2013-08-05 22:35:00
6:16 PM,73.4,62.6,69,29.89,10.0,SSW,4.6,-,N/A,,Mostly Cloudy,200,2013-08-05 23:16:00
6:55 PM,71.6,62.6,73,29.89,10.0,SSW,3.5,-,N/A,,Overcast,200,2013-08-05 23:55:00
7:15 PM,71.6,62.6,73,29.89,10.0,SW,4.6,-,N/A,,Overcast,230,2013-08-06 00:15:00
7:35 PM,71.6,62.6,73,29.89,10.0,Calm,Calm,-,N/A,,Overcast,0,2013-08-06 00:35:00
7:55 PM,71.6,62.6,73,29.89,10.0,SSW,3.5,-,N/A,,Overcast,200,2013-08-06 00:55:00
8:15 PM,71.6,64.4,78,29.89,10.0,South,3.5,-,N/A,,Overcast,180,2013-08-06 01:15:00
8:35 PM,69.8,64.4,83,29.89,10.0,Calm,Calm,-,N/A,,Overcast,0,2013-08-06 01:35:00
9:15 PM,69.8,64.4,83,29.89,10.0,Calm,Calm,-,N/A,,Overcast,0,2013-08-06 02:15:00
9:35 PM,69.8,62.6,78,29.89,10.0,SSE,3.5,-,N/A,,Mostly Cloudy,150,2013-08-06 02:35:00
9:55 PM,69.8,64.4,83,29.89,10.0,Calm,Calm,-,N/A,,Overcast,0,2013-08-06 02:55:00
10:15 PM,69.8,64.4,83,29.89,10.0,Calm,Calm,-,N/A,,Overcast,0,2013-08-06 03:15:00
10:35 PM,69.8,64.4,83,29.89,10.0,Calm,Calm,-,N/A,,Overcast,0,2013-08-06 03:35:00
10:55 PM,69.8,64.4,83,29.89,10.0,Calm,Calm,-,N/A,,Overcast,0,2013-08-06 03:55:00
11:15 PM,69.8,64.4,83,29.88,10.0,South,3.5,-,N/A,,Overcast,180,2013-08-06 04:15:00
11:55 PM,69.8,64.4,83,29.88,10.0,Calm,Calm,-,N/A,,Overcast,0,2013-08-06 04:55:00